Time,TemperatureF,DewpointF,PressureIn,WindDirection,WindDirectionDegrees,WindSpeedMPH,WindSpeedGustMPH,Humidity,HourlyPrecipIn,Conditions,Clouds,dailyrainin,SoftwareType,DateUTC
2013-03-10 00:00:00,40.5,40.0,29.68,East,84,0.0,0.0,98,0.00,,,0.93,Wunderground v.1.15,2013-03-10 06:00:00,
2013-03-10 00:05:00,40.4,39.9,29.68,East,85,0.0,0.0,98,0.00,,,0.00,Wunderground v.1.15,2013-03-10 06:05:00,
2013-03-10 00:15:00,40.2,39.7,29.68,East,85,0.0,0.0,98,0.00,,,0.00,Wunderground v.1.15,2013-03-10 06:15:00,
2013-03-10 00:20:00,40.1,39.6,29.68,East,84,0.0,0.0,98,0.00,,,0.00,Wunderground v.1.15,2013-03-10 06:20:00,
2013-03-10 00:25:00,40.0,39.5,29.69,East,85,0.0,0.0,98,0.00,,,0.00,Wunderground v.1.15,2013-03-10 06:25:00,
2013-03-10 00:30:00,39.9,39.4,29.68,East,85,0.0,0.0,98,0.00,,,0.00,Wunderground v.1.15,2013-03-10 06:30:00,
2013-03-10 00:35:00,39.7,39.2,29.68,East,82,0.0,0.0,98,0.00,,,0.00,Wunderground v.1.15,2013-03-10 06:35:00,
2013-03-10 00:40:00,39.6,39.1,29.68,ENE,74,0.0,2.0,98,0.00,,,0.00,Wunderground v.1.15,2013-03-10 06:40:00,
2013-03-10 00:45:00,39.4,38.9,29.68,ENE,75,1.0,2.0,98,0.00,,,0.00,Wunderground v.1.15,2013-03-10 06:45:00,
2013-03-10 00:50:00,39.2,38.7,29.68,ENE,75,1.0,1.0,98,0.00,,,0.00,Wunderground v.1.15,2013-03-10 06:50:00,
2013-03-10 00:55:00,39.1,38.6,29.68,ENE,75,0.0,1.0,98,0.00,,,0.00,Wunderground v.1.15,2013-03-10 06:55:00,
2013-03-10 01:00:00,39.0,38.5,29.68,ENE,75,0.0,0.0,98,0.00,,,0.01,Wunderground v.1.15,2013-03-10 07:00:00,
2013-03-10 01:10:00,39.1,38.6,29.68,ENE,75,0.0,0.0,98,0.00,,,0.01,Wunderground v.1.15,2013-03-10 07:10:00,
2013-03-10 01:15:00,39.1,38.6,29.69,ENE,75,0.0,0.0,98,0.22,,,0.04,Wunderground v.1.15,2013-03-10 07:15:00,
2013-03-10 01:20:00,39.2,38.7,29.69,ENE,75,0.0,0.0,98,0.15,,,0.05,Wunderground v.1.15,2013-03-10 07:20:00,
2013-03-10 01:25:00,39.3,38.8,29.68,ENE,75,0.0,0.0,98,0.07,,,0.05,Wunderground v.1.15,2013-03-10 07:25:00,
2013-03-10 01:30:00,39.3,38.8,29.68,ENE,75,0.0,0.0,98,0.04,,,0.05,Wunderground v.1.15,2013-03-10 07:30:00,
2013-03-10 01:35:00,39.3,38.8,29.67,ENE,75,0.0,0.0,98,0.00,,,0.05,Wunderground v.1.15,2013-03-10 07:35:00,
2013-03-10 01:40:00,39.3,38.8,29.68,ENE,75,0.0,0.0,98,0.00,,,0.05,Wunderground v.1.15,2013-03-10 07:40:00,
2013-03-10 01:45:00,39.5,39.0,29.68,ENE,75,0.0,0.0,98,0.00,,,0.05,Wunderground v.1.15,2013-03-10 07:45:00,
2013-03-10 01:50:00,39.6,39.1,29.67,ENE,75,0.0,0.0,98,0.00,,,0.05,Wunderground v.1.15,2013-03-10 07:50:00,
2013-03-10 01:55:00,39.7,39.2,29.67,ENE,74,0.0,0.0,98,0.00,,,0.05,Wunderground v.1.15,2013-03-10 07:55:00,
2013-03-10 03:05:00,40.0,39.5,29.66,ENE,74,0.0,0.0,98,0.00,,,0.05,Wunderground v.1.15,2013-03-10 08:05:00,
2013-03-10 03:10:00,40.1,39.6,29.66,ENE,75,0.0,0.0,98,0.00,,,0.05,Wunderground v.1.15,2013-03-10 08:10:00,
2013-03-10 03:15:00,40.1,39.6,29.65,ENE,75,0.0,0.0,98,0.27,,,0.07,Wunderground v.1.15,2013-03-10 08:15:00,
2013-03-10 03:20:00,39.9,39.6,29.65,ENE,75,0.0,0.0,99,0.10,,,0.07,Wunderground v.1.15,2013-03-10 08:20:00,
2013-03-10 03:25:00,39.8,39.5,29.64,ENE,75,0.0,0.0,99,0.05,,,0.07,Wunderground v.1.15,2013-03-10 08:25:00,
2013-03-10 03:30:00,39.8,39.5,29.64,ENE,75,0.0,0.0,99,0.04,,,0.07,Wunderground v.1.15,2013-03-10 08:30:00,
2013-03-10 03:35:00,39.9,39.6,29.63,ENE,74,0.0,0.0,99,0.00,,,0.07,Wunderground v.1.15,2013-03-10 08:35:00,
2013-03-10 03:40:00,40.0,39.7,29.63,ENE,74,0.0,0.0,99,0.00,,,0.07,Wunderground v.1.15,2013-03-10 08:40:00,
2013-03-10 03:45:00,39.9,39.6,29.62,ENE,74,0.0,0.0,99,0.00,,,0.07,Wunderground v.1.15,2013-03-10 08:45:00,
2013-03-10 03:55:00,39.9,39.6,29.62,ENE,74,0.0,0.0,99,0.00,,,0.07,Wunderground v.1.15,2013-03-10 08:55:00,
2013-03-10 04:00:00,39.8,39.5,29.62,ENE,74,0.0,0.0,99,0.00,,,0.07,Wunderground v.1.15,2013-03-10 09:00:00,
2013-03-10 04:05:00,39.7,39.4,29.62,ENE,74,0.0,0.0,99,0.24,,,0.09,Wunderground v.1.15,2013-03-10 09:05:00,
2013-03-10 04:10:00,39.7,39.4,29.62,ENE,74,0.0,0.0,99,0.10,,,0.09,Wunderground v.1.15,2013-03-10 09:10:00,
2013-03-10 04:15:00,39.8,39.5,29.63,ENE,74,0.0,0.0,99,0.07,,,0.10,Wunderground v.1.15,2013-03-10 09:15:00,
2013-03-10 04:20:00,39.8,39.5,29.64,NW,311,1.0,2.0,99,0.09,,,0.11,Wunderground v.1.15,2013-03-10 09:20:00,
2013-03-10 04:25:00,39.5,39.0,29.63,NW,313,1.0,2.0,98,0.09,,,0.11,Wunderground v.1.15,2013-03-10 09:25:00,
2013-03-10 04:30:00,38.9,38.4,29.63,NW,306,1.0,2.0,98,0.05,,,0.11,Wunderground v.1.15,2013-03-10 09:30:00,
2013-03-10 04:40:00,38.2,37.7,29.63,North,355,1.0,1.0,98,0.00,,,0.11,Wunderground v.1.15,2013-03-10 09:40:00,
2013-03-10 04:45:00,37.9,37.4,29.64,WNW,303,0.0,1.0,98,0.00,,,0.11,Wunderground v.1.15,2013-03-10 09:45:00,
2013-03-10 04:50:00,37.7,37.2,29.64,WNW,303,0.0,0.0,98,0.00,,,0.11,Wunderground v.1.15,2013-03-10 09:50:00,
2013-03-10 04:55:00,37.6,37.1,29.65,NNW,336,1.0,1.0,98,0.00,,,0.11,Wunderground v.1.15,2013-03-10 09:55:00,
2013-03-10 05:00:00,37.5,37.0,29.65,NNW,344,2.0,2.0,98,0.00,,,0.11,Wunderground v.1.15,2013-03-10 10:00:00,
2013-03-10 05:05:00,37.3,36.8,29.65,NNW,338,2.0,2.0,98,0.00,,,0.12,Wunderground v.1.15,2013-03-10 10:05:00,
2013-03-10 05:10:00,37.2,36.7,29.65,NNW,340,2.0,2.0,98,0.00,,,0.12,Wunderground v.1.15,2013-03-10 10:10:00,
2013-03-10 05:15:00,37.0,36.5,29.66,NNW,344,2.0,2.0,98,0.05,,,0.13,Wunderground v.1.15,2013-03-10 10:15:00,
2013-03-10 05:25:00,36.9,36.4,29.66,NW,317,1.0,4.0,98,0.05,,,0.13,Wunderground v.1.15,2013-03-10 10:25:00,
2013-03-10 05:30:00,36.8,36.3,29.66,NNW,346,2.0,2.0,98,0.04,,,0.13,Wunderground v.1.15,2013-03-10 10:30:00,
2013-03-10 05:35:00,36.7,36.2,29.65,NNW,345,2.0,2.0,98,0.00,,,0.13,Wunderground v.1.15,2013-03-10 10:35:00,
2013-03-10 05:40:00,36.6,36.1,29.66,North,349,1.0,1.0,98,0.00,,,0.13,Wunderground v.1.15,2013-03-10 10:40:00,
2013-03-10 05:45:00,36.5,36.0,29.66,NW,325,0.0,3.0,98,0.00,,,0.13,Wunderground v.1.15,2013-03-10 10:45:00,
2013-03-10 05:50:00,36.4,35.9,29.66,NNW,348,1.0,1.0,98,0.00,,,0.13,Wunderground v.1.15,2013-03-10 10:50:00,
2013-03-10 05:55:00,36.4,35.9,29.66,North,10,2.0,2.0,98,0.00,,,0.13,Wunderground v.1.15,2013-03-10 10:55:00,
2013-03-10 06:00:00,36.3,35.8,29.65,North,360,1.0,1.0,98,0.00,,,0.14,Wunderground v.1.15,2013-03-10 11:00:00,
2013-03-10 06:10:00,36.1,35.6,29.64,North,360,0.0,0.0,98,0.00,,,0.14,Wunderground v.1.15,2013-03-10 11:10:00,
2013-03-10 06:15:00,36.1,35.6,29.65,NNW,327,1.0,4.0,98,0.00,,,0.14,Wunderground v.1.15,2013-03-10 11:15:00,
2013-03-10 06:25:00,36.1,35.6,29.66,North,355,4.0,7.0,98,0.00,,,0.14,Wunderground v.1.15,2013-03-10 11:25:00,
2013-03-10 06:30:00,36.1,35.6,29.67,NNE,15,4.0,4.0,98,0.00,,,0.14,Wunderground v.1.15,2013-03-10 11:30:00,
2013-03-10 06:35:00,36.2,35.7,29.70,NNW,348,3.0,4.0,98,0.00,,,0.14,Wunderground v.1.15,2013-03-10 11:35:00,
2013-03-10 06:40:00,36.2,35.7,29.71,NNW,337,2.0,3.0,98,0.00,,,0.14,Wunderground v.1.15,2013-03-10 11:40:00,
2013-03-10 06:45:00,36.0,35.5,29.71,NNW,340,2.0,3.0,98,0.00,,,0.14,Wunderground v.1.15,2013-03-10 11:45:00,
2013-03-10 06:50:00,35.9,35.4,29.70,NNE,15,3.0,3.0,98,0.00,,,0.14,Wunderground v.1.15,2013-03-10 11:50:00,
2013-03-10 06:55:00,35.8,35.3,29.70,NNW,340,3.0,3.0,98,0.00,,,0.14,Wunderground v.1.15,2013-03-10 11:55:00,
2013-03-10 07:05:00,35.6,35.1,29.70,North,355,3.0,4.0,98,0.00,,,0.15,Wunderground v.1.15,2013-03-10 12:05:00,
2013-03-10 07:10:00,35.5,35.0,29.70,North,360,3.0,3.0,98,0.00,,,0.15,Wunderground v.1.15,2013-03-10 12:10:00,
2013-03-10 07:15:00,35.5,35.0,29.70,NNW,344,2.0,3.0,98,0.00,,,0.15,Wunderground v.1.15,2013-03-10 12:15:00,
2013-03-10 07:20:00,35.5,35.0,29.70,NW,315,2.0,6.0,98,0.00,,,0.15,Wunderground v.1.15,2013-03-10 12:20:00,
2013-03-10 07:25:00,35.5,35.0,29.70,NNW,346,2.0,6.0,98,0.00,,,0.15,Wunderground v.1.15,2013-03-10 12:25:00,
2013-03-10 07:30:00,35.4,34.9,29.69,North,350,1.0,3.0,98,0.00,,,0.15,Wunderground v.1.15,2013-03-10 12:30:00,
2013-03-10 07:35:00,35.4,34.9,29.69,North,360,3.0,7.0,98,0.00,,,0.15,Wunderground v.1.15,2013-03-10 12:35:00,
2013-03-10 07:40:00,35.4,34.9,29.68,NNW,340,4.0,4.0,98,0.00,,,0.16,Wunderground v.1.15,2013-03-10 12:40:00,
2013-03-10 07:50:00,35.5,35.0,29.69,NNE,13,3.0,3.0,98,0.00,,,0.16,Wunderground v.1.15,2013-03-10 12:50:00,
2013-03-10 07:55:00,35.5,35.0,29.70,NNE,28,5.0,8.0,98,0.04,,,0.17,Wunderground v.1.15,2013-03-10 12:55:00,
2013-03-10 08:00:00,35.6,35.1,29.70,North,355,4.0,4.0,98,0.04,,,0.17,Wunderground v.1.15,2013-03-10 13:00:00,
2013-03-10 08:05:00,35.5,35.0,29.70,NNW,344,2.0,4.0,98,0.04,,,0.17,Wunderground v.1.15,2013-03-10 13:05:00,
2013-03-10 08:10:00,35.6,35.1,29.70,NNW,348,2.0,2.0,98,0.00,,,0.17,Wunderground v.1.15,2013-03-10 13:10:00,
2013-03-10 08:15:00,35.6,35.1,29.69,NNW,344,2.0,2.0,98,0.00,,,0.17,Wunderground v.1.15,2013-03-10 13:15:00,
2013-03-10 08:25:00,35.5,35.0,29.68,North,5,3.0,4.0,98,0.00,,,0.17,Wunderground v.1.15,2013-03-10 13:25:00,
2013-03-10 08:30:00,35.4,34.9,29.67,North,355,3.0,3.0,98,0.00,,,0.17,Wunderground v.1.15,2013-03-10 13:30:00,
2013-03-10 08:35:00,35.3,34.8,29.68,North,355,3.0,3.0,98,0.00,,,0.17,Wunderground v.1.15,2013-03-10 13:35:00,
2013-03-10 08:40:00,35.3,34.8,29.68,North,360,2.0,5.0,98,0.00,,,0.17,Wunderground v.1.15,2013-03-10 13:40:00,
2013-03-10 08:50:00,35.3,34.8,29.70,North,355,1.0,2.0,98,0.00,,,0.17,Wunderground v.1.15,2013-03-10 13:50:00,
2013-03-10 08:55:00,35.4,34.9,29.70,North,355,1.0,2.0,98,0.00,,,0.17,Wunderground v.1.15,2013-03-10 13:55:00,
2013-03-10 09:00:00,35.4,34.9,29.70,North,5,1.0,1.0,98,0.00,,,0.17,Wunderground v.1.15,2013-03-10 14:00:00,
2013-03-10 09:05:00,35.4,34.9,29.71,North,360,1.0,4.0,98,0.00,,,0.17,Wunderground v.1.15,2013-03-10 14:05:00,
2013-03-10 09:10:00,35.4,34.9,29.72,NNW,342,2.0,3.0,98,0.00,,,0.17,Wunderground v.1.15,2013-03-10 14:10:00,
2013-03-10 09:20:00,35.4,34.9,29.72,NE,54,1.0,3.0,98,0.00,,,0.17,Wunderground v.1.15,2013-03-10 14:20:00,
2013-03-10 09:25:00,35.5,35.0,29.73,North,360,1.0,4.0,98,0.00,,,0.17,Wunderground v.1.15,2013-03-10 14:25:00,
2013-03-10 09:30:00,35.5,35.0,29.73,North,5,1.0,2.0,98,0.00,,,0.17,Wunderground v.1.15,2013-03-10 14:30:00,
2013-03-10 09:35:00,35.5,35.0,29.73,North,350,1.0,2.0,98,0.00,,,0.17,Wunderground v.1.15,2013-03-10 14:35:00,
2013-03-10 09:40:00,35.5,35.0,29.73,North,10,1.0,2.0,98,0.00,,,0.17,Wunderground v.1.15,2013-03-10 14:40:00,
2013-03-10 09:45:00,35.4,34.9,29.74,North,355,1.0,2.0,98,0.00,,,0.17,Wunderground v.1.15,2013-03-10 14:45:00,
2013-03-10 09:50:00,35.5,35.0,29.74,NNW,331,1.0,4.0,98,0.00,,,0.17,Wunderground v.1.15,2013-03-10 14:50:00,
2013-03-10 09:55:00,35.4,34.9,29.73,North,350,1.0,4.0,98,0.00,,,0.17,Wunderground v.1.15,2013-03-10 14:55:00,
2013-03-10 10:00:00,35.4,34.9,29.72,North,360,1.0,1.0,98,0.00,,,0.17,Wunderground v.1.15,2013-03-10 15:00:00,
2013-03-10 10:05:00,35.4,34.9,29.73,NNE,26,0.0,1.0,98,0.00,,,0.17,Wunderground v.1.15,2013-03-10 15:05:00,
2013-03-10 10:15:00,35.4,34.9,29.72,NNE,24,1.0,1.0,98,0.00,,,0.18,Wunderground v.1.15,2013-03-10 15:15:00,
2013-03-10 10:20:00,35.4,34.9,29.72,NNW,340,0.0,0.0,98,0.08,,,0.19,Wunderground v.1.15,2013-03-10 15:20:00,
2013-03-10 10:25:00,35.5,35.0,29.70,North,360,1.0,1.0,98,0.08,,,0.19,Wunderground v.1.15,2013-03-10 15:25:00,
2013-03-10 10:30:00,35.4,34.9,29.70,NE,37,1.0,3.0,98,0.15,,,0.21,Wunderground v.1.15,2013-03-10 15:30:00,
2013-03-10 10:35:00,35.5,35.0,29.71,NNE,26,1.0,3.0,98,0.10,,,0.21,Wunderground v.1.15,2013-03-10 15:35:00,
2013-03-10 10:40:00,35.5,35.0,29.72,NNW,341,2.0,5.0,98,0.05,,,0.21,Wunderground v.1.15,2013-03-10 15:40:00,
2013-03-10 10:45:00,35.5,35.0,29.72,North,360,1.0,5.0,98,0.04,,,0.22,Wunderground v.1.15,2013-03-10 15:45:00,
2013-03-10 10:50:00,35.5,35.0,29.73,NE,47,1.0,1.0,98,0.13,,,0.23,Wunderground v.1.15,2013-03-10 15:50:00,
2013-03-10 10:55:00,35.5,35.0,29.74,NNE,19,0.0,1.0,98,0.08,,,0.24,Wunderground v.1.15,2013-03-10 15:55:00,
2013-03-10 11:00:00,35.6,35.1,29.74,NNE,14,0.0,0.0,98,0.08,,,0.25,Wunderground v.1.15,2013-03-10 16:00:00,
2013-03-10 11:10:00,35.6,35.1,29.75,NNW,344,1.0,5.0,98,0.06,,,0.25,Wunderground v.1.15,2013-03-10 16:10:00,
2013-03-10 11:20:00,35.6,35.1,29.75,NNW,345,1.0,1.0,98,0.00,,,0.25,Wunderground v.1.15,2013-03-10 16:20:00,
2013-03-10 11:25:00,35.7,35.2,29.76,NNW,347,0.0,1.0,98,0.00,,,0.26,Wunderground v.1.15,2013-03-10 16:25:00,
2013-03-10 11:30:00,35.7,35.2,29.76,NE,42,0.0,0.0,98,0.00,,,0.26,Wunderground v.1.15,2013-03-10 16:30:00,
2013-03-10 11:35:00,35.7,35.2,29.74,NNW,342,0.0,0.0,98,0.00,,,0.26,Wunderground v.1.15,2013-03-10 16:35:00,
2013-03-10 11:40:00,35.7,35.2,29.73,North,350,1.0,1.0,98,0.05,,,0.27,Wunderground v.1.15,2013-03-10 16:40:00,
2013-03-10 11:45:00,35.7,35.2,29.73,North,360,2.0,2.0,98,0.05,,,0.27,Wunderground v.1.15,2013-03-10 16:45:00,
2013-03-10 11:50:00,35.8,35.3,29.73,North,9,1.0,1.0,98,0.05,,,0.27,Wunderground v.1.15,2013-03-10 16:50:00,
2013-03-10 11:55:00,35.8,35.3,29.72,NNE,26,1.0,2.0,98,0.00,,,0.27,Wunderground v.1.15,2013-03-10 16:55:00,
2013-03-10 12:00:00,35.9,35.4,29.71,NNE,13,2.0,3.0,98,0.00,,,0.27,Wunderground v.1.15,2013-03-10 17:00:00,
2013-03-10 12:10:00,35.9,35.4,29.71,NNE,22,2.0,3.0,98,0.00,,,0.27,Wunderground v.1.15,2013-03-10 17:10:00,
2013-03-10 12:15:00,35.9,35.4,29.71,North,360,2.0,3.0,98,0.00,,,0.27,Wunderground v.1.15,2013-03-10 17:15:00,
2013-03-10 12:20:00,35.9,35.4,29.71,NNE,27,2.0,3.0,98,0.00,,,0.27,Wunderground v.1.15,2013-03-10 17:20:00,
2013-03-10 12:25:00,35.9,35.4,29.71,North,11,3.0,3.0,98,0.00,,,0.27,Wunderground v.1.15,2013-03-10 17:25:00,
2013-03-10 12:30:00,35.9,35.4,29.71,NE,42,3.0,3.0,98,0.00,,,0.27,Wunderground v.1.15,2013-03-10 17:30:00,
2013-03-10 12:35:00,35.9,35.4,29.71,NNE,25,2.0,3.0,98,0.00,,,0.27,Wunderground v.1.15,2013-03-10 17:35:00,
2013-03-10 12:40:00,35.9,35.4,29.70,NNE,28,2.0,2.0,98,0.00,,,0.27,Wunderground v.1.15,2013-03-10 17:40:00,
2013-03-10 12:45:00,35.9,35.4,29.69,NE,43,3.0,4.0,98,0.00,,,0.27,Wunderground v.1.15,2013-03-10 17:45:00,
2013-03-10 12:55:00,36.0,35.5,29.69,NNE,33,4.0,7.0,98,0.00,,,0.27,Wunderground v.1.15,2013-03-10 17:55:00,
2013-03-10 13:00:00,36.0,35.5,29.70,NE,53,5.0,5.0,98,0.00,,,0.27,Wunderground v.1.15,2013-03-10 18:00:00,
2013-03-10 13:05:00,36.0,35.5,29.70,NE,41,3.0,5.0,98,0.00,,,0.27,Wunderground v.1.15,2013-03-10 18:05:00,
2013-03-10 13:10:00,36.0,35.5,29.70,NE,36,2.0,2.0,98,0.00,,,0.27,Wunderground v.1.15,2013-03-10 18:10:00,
2013-03-10 13:15:00,36.0,35.5,29.70,NNE,32,2.0,2.0,98,0.00,,,0.27,Wunderground v.1.15,2013-03-10 18:15:00,
2013-03-10 13:20:00,36.0,35.5,29.70,NE,47,2.0,3.0,98,0.00,,,0.27,Wunderground v.1.15,2013-03-10 18:20:00,
2013-03-10 13:25:00,36.0,35.5,29.69,ENE,63,4.0,4.0,98,0.00,,,0.27,Wunderground v.1.15,2013-03-10 18:25:00,
2013-03-10 13:30:00,36.0,35.5,29.70,NE,45,4.0,4.0,98,0.00,,,0.28,Wunderground v.1.15,2013-03-10 18:30:00,
2013-03-10 13:35:00,36.0,35.5,29.69,NNE,22,3.0,4.0,98,0.00,,,0.28,Wunderground v.1.15,2013-03-10 18:35:00,
2013-03-10 13:45:00,36.1,35.6,29.68,NE,42,2.0,2.0,98,0.06,,,0.29,Wunderground v.1.15,2013-03-10 18:45:00,
2013-03-10 13:50:00,36.0,35.5,29.67,NNE,22,2.0,2.0,98,0.04,,,0.29,Wunderground v.1.15,2013-03-10 18:50:00,
2013-03-10 13:55:00,36.0,35.5,29.66,NE,38,1.0,2.0,98,0.04,,,0.30,Wunderground v.1.15,2013-03-10 18:55:00,
2013-03-10 14:00:00,36.0,35.5,29.67,North,355,1.0,1.0,98,0.04,,,0.30,Wunderground v.1.15,2013-03-10 19:00:00,
2013-03-10 14:05:00,36.0,35.5,29.67,NE,38,2.0,2.0,98,0.04,,,0.31,Wunderground v.1.15,2013-03-10 19:05:00,
2013-03-10 14:10:00,36.0,35.5,29.67,NNW,345,3.0,3.0,98,0.04,,,0.31,Wunderground v.1.15,2013-03-10 19:10:00,
2013-03-10 14:15:00,35.9,35.4,29.65,ENE,62,2.0,3.0,98,0.04,,,0.31,Wunderground v.1.15,2013-03-10 19:15:00,
2013-03-10 14:20:00,35.9,35.4,29.63,NNE,17,2.0,4.0,98,0.04,,,0.32,Wunderground v.1.15,2013-03-10 19:20:00,
2013-03-10 14:30:00,36.0,35.5,29.64,NE,46,4.0,4.0,98,0.04,,,0.32,Wunderground v.1.15,2013-03-10 19:30:00,
2013-03-10 14:35:00,36.0,35.5,29.64,ENE,62,3.0,4.0,98,0.04,,,0.32,Wunderground v.1.15,2013-03-10 19:35:00,
2013-03-10 14:40:00,35.9,35.4,29.64,NNE,29,2.0,2.0,98,0.00,,,0.32,Wunderground v.1.15,2013-03-10 19:40:00,
2013-03-10 14:50:00,36.0,35.5,29.66,NNE,24,2.0,2.0,98,0.00,,,0.32,Wunderground v.1.15,2013-03-10 19:50:00,
2013-03-10 14:55:00,36.0,35.5,29.65,NE,42,3.0,5.0,98,0.00,,,0.33,Wunderground v.1.15,2013-03-10 19:55:00,
2013-03-10 15:00:00,36.0,35.5,29.65,NE,50,4.0,4.0,98,0.00,,,0.33,Wunderground v.1.15,2013-03-10 20:00:00,
2013-03-10 15:05:00,36.0,35.5,29.65,NE,44,3.0,4.0,98,0.05,,,0.34,Wunderground v.1.15,2013-03-10 20:05:00,
2013-03-10 15:15:00,36.0,35.5,29.65,NE,44,2.0,2.0,98,0.11,,,0.36,Wunderground v.1.15,2013-03-10 20:15:00,
2013-03-10 15:20:00,36.0,35.5,29.66,ENE,59,1.0,1.0,98,0.16,,,0.37,Wunderground v.1.15,2013-03-10 20:20:00,
2013-03-10 15:25:00,36.0,35.5,29.66,ENE,58,0.0,1.0,98,0.08,,,0.37,Wunderground v.1.15,2013-03-10 20:25:00,
2013-03-10 15:35:00,36.1,35.6,29.66,North,360,0.0,0.0,98,0.10,,,0.39,Wunderground v.1.15,2013-03-10 20:35:00,
2013-03-10 15:40:00,36.1,35.6,29.66,NNW,336,0.0,0.0,98,0.08,,,0.39,Wunderground v.1.15,2013-03-10 20:40:00,
2013-03-10 15:45:00,36.0,35.5,29.66,NNW,338,0.0,0.0,98,0.08,,,0.40,Wunderground v.1.15,2013-03-10 20:45:00,
2013-03-10 15:50:00,36.0,35.5,29.66,North,360,0.0,0.0,98,0.10,,,0.41,Wunderground v.1.15,2013-03-10 20:50:00,
2013-03-10 15:55:00,36.1,35.6,29.66,NNE,30,0.0,0.0,98,0.07,,,0.41,Wunderground v.1.15,2013-03-10 20:55:00,
2013-03-10 16:05:00,36.0,35.5,29.66,NNW,338,0.0,0.0,98,0.12,,,0.43,Wunderground v.1.15,2013-03-10 21:05:00,
2013-03-10 16:15:00,35.9,35.4,29.66,NNW,345,0.0,0.0,98,0.07,,,0.44,Wunderground v.1.15,2013-03-10 21:15:00,
2013-03-10 16:20:00,35.9,35.1,29.66,NNW,330,1.0,1.0,97,0.17,,,0.45,Wunderground v.1.15,2013-03-10 21:20:00,
2013-03-10 16:25:00,35.8,35.0,29.66,NNW,333,1.0,1.0,97,0.09,,,0.46,Wunderground v.1.15,2013-03-10 21:25:00,
2013-03-10 16:30:00,35.8,35.0,29.66,NNW,342,1.0,1.0,97,0.17,,,0.47,Wunderground v.1.15,2013-03-10 21:30:00,
2013-03-10 16:35:00,35.7,34.9,29.66,NNE,32,0.0,1.0,97,0.11,,,0.48,Wunderground v.1.15,2013-03-10 21:35:00,
2013-03-10 16:40:00,35.7,34.9,29.66,NNW,336,0.0,0.0,97,0.13,,,0.49,Wunderground v.1.15,2013-03-10 21:40:00,
2013-03-10 16:45:00,35.7,34.9,29.66,North,9,0.0,0.0,97,0.09,,,0.50,Wunderground v.1.15,2013-03-10 21:45:00,
2013-03-10 16:50:00,35.6,34.8,29.66,NNW,341,0.0,0.0,97,0.14,,,0.51,Wunderground v.1.15,2013-03-10 21:50:00,
2013-03-10 17:00:00,35.6,35.1,29.66,North,355,1.0,4.0,98,0.14,,,0.53,Wunderground v.1.15,2013-03-10 22:00:00,
2013-03-10 17:05:00,35.5,35.0,29.66,NNW,331,2.0,4.0,98,0.09,,,0.53,Wunderground v.1.15,2013-03-10 22:05:00,
2013-03-10 17:10:00,35.4,34.9,29.66,NNE,19,2.0,6.0,98,0.08,,,0.54,Wunderground v.1.15,2013-03-10 22:10:00,
2013-03-10 17:15:00,35.3,34.8,29.66,NNW,333,1.0,6.0,98,0.13,,,0.55,Wunderground v.1.15,2013-03-10 22:15:00,
2013-03-10 17:20:00,35.2,34.4,29.66,North,355,2.0,3.0,97,0.06,,,0.55,Wunderground v.1.15,2013-03-10 22:20:00,
2013-03-10 17:25:00,35.1,34.3,29.66,NNW,342,2.0,3.0,97,0.05,,,0.56,Wunderground v.1.15,2013-03-10 22:25:00,
2013-03-10 17:30:00,35.0,34.2,29.66,NNE,17,3.0,3.0,97,0.05,,,0.56,Wunderground v.1.15,2013-03-10 22:30:00,
2013-03-10 17:40:00,34.8,34.3,29.66,North,355,1.0,7.0,98,0.05,,,0.57,Wunderground v.1.15,2013-03-10 22:40:00,
2013-03-10 17:45:00,34.6,33.8,29.66,NNW,334,1.0,7.0,97,0.05,,,0.57,Wunderground v.1.15,2013-03-10 22:45:00,
2013-03-10 17:50:00,34.5,33.7,29.66,NNE,17,1.0,1.0,97,0.05,,,0.57,Wunderground v.1.15,2013-03-10 22:50:00,
2013-03-10 17:55:00,34.4,33.6,29.66,North,5,1.0,2.0,97,0.00,,,0.57,Wunderground v.1.15,2013-03-10 22:55:00,
2013-03-10 18:00:00,34.2,33.7,29.66,North,11,2.0,2.0,98,0.00,,,0.57,Wunderground v.1.15,2013-03-10 23:00:00,
2013-03-10 18:05:00,34.1,33.3,29.66,North,5,1.0,7.0,97,0.00,,,0.57,Wunderground v.1.15,2013-03-10 23:05:00,
2013-03-10 18:10:00,34.1,33.3,29.66,North,349,2.0,3.0,97,0.00,,,0.57,Wunderground v.1.15,2013-03-10 23:10:00,
2013-03-10 18:15:00,34.1,33.3,29.66,NNW,344,3.0,4.0,97,0.00,,,0.57,Wunderground v.1.15,2013-03-10 23:15:00,
2013-03-10 18:25:00,34.1,33.3,29.66,North,351,2.0,6.0,97,0.00,,,0.57,Wunderground v.1.15,2013-03-10 23:25:00,
2013-03-10 18:30:00,34.0,33.2,29.66,NNW,348,2.0,2.0,97,0.00,,,0.57,Wunderground v.1.15,2013-03-10 23:30:00,
2013-03-10 18:35:00,34.0,33.2,29.66,NNW,342,2.0,2.0,97,0.00,,,0.58,Wunderground v.1.15,2013-03-10 23:35:00,
2013-03-10 18:40:00,33.9,33.1,29.66,NNW,348,2.0,4.0,97,0.00,,,0.58,Wunderground v.1.15,2013-03-10 23:40:00,
2013-03-10 18:45:00,34.0,33.2,29.66,North,349,3.0,4.0,97,0.00,,,0.58,Wunderground v.1.15,2013-03-10 23:45:00,
2013-03-10 18:50:00,33.9,33.1,29.67,NNW,339,3.0,3.0,97,0.00,,,0.58,Wunderground v.1.15,2013-03-10 23:50:00,
2013-03-10 18:55:00,33.9,33.4,29.67,NNW,336,2.0,3.0,98,0.00,,,0.58,Wunderground v.1.15,2013-03-10 23:55:00,
2013-03-10 19:00:00,33.9,33.4,29.67,NW,311,2.0,2.0,98,0.00,,,0.58,Wunderground v.1.15,2013-03-11 00:00:00,
2013-03-10 19:10:00,33.9,33.4,29.67,NNW,345,2.0,3.0,98,0.00,,,0.58,Wunderground v.1.15,2013-03-11 00:10:00,
2013-03-10 19:15:00,33.9,33.4,29.67,North,360,4.0,4.0,98,0.00,,,0.58,Wunderground v.1.15,2013-03-11 00:15:00,
2013-03-10 19:20:00,34.0,33.5,29.67,NNW,344,4.0,4.0,98,0.00,,,0.59,Wunderground v.1.15,2013-03-11 00:20:00,
2013-03-10 19:25:00,34.0,33.5,29.67,North,350,3.0,4.0,98,0.00,,,0.59,Wunderground v.1.15,2013-03-11 00:25:00,
2013-03-10 19:30:00,33.9,33.4,29.67,North,360,3.0,3.0,98,0.00,,,0.59,Wunderground v.1.15,2013-03-11 00:30:00,
2013-03-10 19:35:00,33.9,33.4,29.67,North,355,3.0,3.0,98,0.00,,,0.59,Wunderground v.1.15,2013-03-11 00:35:00,
2013-03-10 19:40:00,33.9,33.1,29.67,NNW,333,3.0,4.0,97,0.00,,,0.59,Wunderground v.1.15,2013-03-11 00:40:00,
2013-03-10 19:45:00,33.9,33.1,29.67,NNW,329,3.0,4.0,97,0.00,,,0.59,Wunderground v.1.15,2013-03-11 00:45:00,
2013-03-10 19:55:00,33.9,33.1,29.67,North,355,5.0,8.0,97,0.00,,,0.59,Wunderground v.1.15,2013-03-11 00:55:00,
2013-03-10 20:00:00,33.9,33.1,29.67,NNW,337,4.0,4.0,97,0.00,,,0.59,Wunderground v.1.15,2013-03-11 01:00:00,
2013-03-10 20:05:00,33.9,33.1,29.67,NNW,338,3.0,4.0,97,0.00,,,0.59,Wunderground v.1.15,2013-03-11 01:05:00,
2013-03-10 20:10:00,33.9,33.1,29.67,NNW,336,2.0,6.0,97,0.00,,,0.59,Wunderground v.1.15,2013-03-11 01:10:00,
2013-03-10 20:15:00,33.9,33.1,29.67,North,360,2.0,6.0,97,0.00,,,0.59,Wunderground v.1.15,2013-03-11 01:15:00,
2013-03-10 20:20:00,33.9,33.1,29.67,NNW,345,4.0,4.0,97,0.00,,,0.59,Wunderground v.1.15,2013-03-11 01:20:00,
2013-03-10 20:25:00,33.9,33.1,29.68,NNE,12,4.0,4.0,97,0.00,,,0.59,Wunderground v.1.15,2013-03-11 01:25:00,
2013-03-10 20:35:00,33.9,33.1,29.68,NNW,327,3.0,6.0,97,0.00,,,0.59,Wunderground v.1.15,2013-03-11 01:35:00,
2013-03-10 20:40:00,33.9,33.1,29.68,NNW,331,4.0,4.0,97,0.00,,,0.59,Wunderground v.1.15,2013-03-11 01:40:00,
2013-03-10 20:45:00,33.9,33.1,29.68,North,10,4.0,6.0,97,0.00,,,0.59,Wunderground v.1.15,2013-03-11 01:45:00,
2013-03-10 20:50:00,33.9,33.1,29.68,NW,326,4.0,4.0,97,0.00,,,0.59,Wunderground v.1.15,2013-03-11 01:50:00,
2013-03-10 20:55:00,33.9,33.1,29.68,North,355,4.0,4.0,97,0.00,,,0.59,Wunderground v.1.15,2013-03-11 01:55:00,
2013-03-10 21:00:00,33.9,33.1,29.68,NNE,33,3.0,3.0,97,0.00,,,0.59,Wunderground v.1.15,2013-03-11 02:00:00,
2013-03-10 21:10:00,33.9,33.1,29.69,NNW,344,3.0,3.0,97,0.00,,,0.59,Wunderground v.1.15,2013-03-11 02:10:00,
2013-03-10 21:15:00,33.9,33.1,29.69,NNE,22,2.0,4.0,97,0.00,,,0.59,Wunderground v.1.15,2013-03-11 02:15:00,
2013-03-10 21:20:00,33.9,33.1,29.70,NNW,341,2.0,4.0,97,0.00,,,0.59,Wunderground v.1.15,2013-03-11 02:20:00,
2013-03-10 21:25:00,33.9,33.1,29.70,NW,319,2.0,4.0,97,0.00,,,0.59,Wunderground v.1.15,2013-03-11 02:25:00,
2013-03-10 21:35:00,33.9,33.1,29.70,NNW,341,3.0,3.0,97,0.00,,,0.59,Wunderground v.1.15,2013-03-11 02:35:00,
2013-03-10 21:40:00,33.9,33.1,29.70,NNW,328,3.0,6.0,97,0.00,,,0.59,Wunderground v.1.15,2013-03-11 02:40:00,
2013-03-10 21:45:00,33.9,33.1,29.70,North,349,3.0,6.0,97,0.00,,,0.59,Wunderground v.1.15,2013-03-11 02:45:00,
2013-03-10 21:50:00,33.9,33.1,29.70,North,350,4.0,4.0,97,0.00,,,0.59,Wunderground v.1.15,2013-03-11 02:50:00,
2013-03-10 21:55:00,33.9,33.1,29.69,NNW,331,4.0,4.0,97,0.00,,,0.59,Wunderground v.1.15,2013-03-11 02:55:00,
2013-03-10 22:05:00,33.9,33.1,29.68,NNW,339,3.0,4.0,97,0.00,,,0.59,Wunderground v.1.15,2013-03-11 03:05:00,
2013-03-10 22:10:00,33.9,33.1,29.69,NNW,337,4.0,4.0,97,0.00,,,0.59,Wunderground v.1.15,2013-03-11 03:10:00,
2013-03-10 22:15:00,33.8,33.0,29.69,North,355,5.0,5.0,97,0.00,,,0.59,Wunderground v.1.15,2013-03-11 03:15:00,
2013-03-10 22:20:00,33.8,33.0,29.70,NNW,331,4.0,4.0,97,0.00,,,0.59,Wunderground v.1.15,2013-03-11 03:20:00,
2013-03-10 22:25:00,33.7,32.9,29.70,North,349,3.0,5.0,97,0.00,,,0.59,Wunderground v.1.15,2013-03-11 03:25:00,
2013-03-10 22:30:00,33.7,32.9,29.70,NE,40,3.0,3.0,97,0.00,,,0.59,Wunderground v.1.15,2013-03-11 03:30:00,
2013-03-10 22:35:00,33.7,32.9,29.71,NNW,344,4.0,4.0,97,0.00,,,0.59,Wunderground v.1.15,2013-03-11 03:35:00,
2013-03-10 22:40:00,33.7,32.9,29.71,North,360,5.0,8.0,97,0.00,,,0.59,Wunderground v.1.15,2013-03-11 03:40:00,
2013-03-10 22:50:00,33.6,32.8,29.71,NW,325,5.0,5.0,97,0.00,,,0.60,Wunderground v.1.15,2013-03-11 03:50:00,
2013-03-10 22:55:00,33.6,32.8,29.71,North,360,4.0,5.0,97,0.00,,,0.60,Wunderground v.1.15,2013-03-11 03:55:00,
2013-03-10 23:00:00,33.6,32.8,29.71,NNW,339,2.0,2.0,97,0.00,,,0.60,Wunderground v.1.15,2013-03-11 04:00:00,
2013-03-10 23:05:00,33.5,32.7,29.71,NNW,340,3.0,5.0,97,0.00,,,0.60,Wunderground v.1.15,2013-03-11 04:05:00,
2013-03-10 23:10:00,33.5,32.7,29.71,North,355,5.0,5.0,97,0.00,,,0.60,Wunderground v.1.15,2013-03-11 04:10:00,
2013-03-10 23:15:00,33.4,32.6,29.71,North,350,4.0,5.0,97,0.00,,,0.60,Wunderground v.1.15,2013-03-11 04:15:00,
2013-03-10 23:20:00,33.4,32.6,29.71,NNW,333,3.0,3.0,97,0.00,,,0.60,Wunderground v.1.15,2013-03-11 04:20:00,
2013-03-10 23:25:00,33.3,32.5,29.71,NNW,345,3.0,3.0,97,0.00,,,0.60,Wunderground v.1.15,2013-03-11 04:25:00,
2013-03-10 23:30:00,33.3,32.5,29.71,North,350,4.0,4.0,97,0.00,,,0.60,Wunderground v.1.15,2013-03-11 04:30:00,
2013-03-10 23:40:00,33.2,32.4,29.71,NNW,344,4.0,4.0,97,0.00,,,0.60,Wunderground v.1.15,2013-03-11 04:40:00,
2013-03-10 23:45:00,33.2,32.4,29.71,NNW,334,2.0,4.0,97,0.00,,,0.60,Wunderground v.1.15,2013-03-11 04:45:00,
2013-03-10 23:50:00,33.2,32.4,29.71,NNW,337,2.0,4.0,97,0.00,,,0.60,Wunderground v.1.15,2013-03-11 04:50:00,
2013-03-10 23:55:00,33.2,32.4,29.71,North,9,4.0,4.0,97,0.00,,,0.60,Wunderground v.1.15,2013-03-11 04:55:00,